Crescent City, CA

12:36 AM PDT on October 19, 2017 (GMT -0700)
McNamara

Weather History for KCEC - September, 2013

Change the Weather History Date:

Tuesday, September 10, 2013

  Actual Average Record
Temperature  
Mean Temperature 58 °F 56 °F  
Max Temperature 66 °F 62 °F 79 °F (1976)
Min Temperature 49 °F 50 °F 40 °F (1998)
Degree Days  
Heating Degree Days 9 9  
Month to date heating degree days 86  
Since 1 July heating degree days 606  
Cooling Degree Days 0 0  
Month to date cooling degree days 0  
Year to date cooling degree days 0  
Growing Degree Days 6 (Base 50)    
Moisture  
Dew Point 54 °F    
Average Humidity 89    
Maximum Humidity 100    
Minimum Humidity 78    
Precipitation  
Precipitation 0.00 in 0.02 in 1.46 in (1954)
Month to date precipitation 0.21 0.23  
Year to date precipitation 20.38 38.09  
Since 1 July precipitation 0.45  
Snow  
Snow 0.00 in - - ()
Month to date snowfall 0.0  
Since 1 July snowfall 0.0  
Since 1 September snowfall 0.0  
Snow Depth -    
Sea Level Pressure  
Sea Level Pressure 29.77 in    
Wind  
Wind Speed 7 mph (SSE)    
Max Wind Speed 22 mph    
Max Gust Speed 29 mph    
Visibility 6 miles    
Events Fog    
T = Trace of Precipitation, MM = Missing Value Source: NWS Daily Summary

Daily Weather History Graph

Daily Weather History Graph

Search for Another Location

Airport or City:

Trip Planner

Search our weather history database for the weather conditions in past years. The results will help you decide how hot, cold, wet, or windy it might be!

Date:

Astronomy

Sep. 10, 2013 Rise Set
Actual Time 6:52 AM PDT 7:34 PM PDT
Civil Twilight 6:24 AM PDT 8:02 PM PDT
Nautical Twilight 5:50 AM PDT 8:35 PM PDT
Astronomical Twilight 5:16 AM PDT 9:10 PM PDT
Moon 12:29 PM PDT (9/10) 10:36 PM PDT (9/10)
Length of Visible Light 13h 38m
Length of Day
12h 42m
Waxing Crescent, 29% of the Moon is Illuminated
Sep 10
Waxing Crescent
Sep 12
First Quarter
Sep 19
Full
Sep 26
Last Quarter
Oct 4
New

Hourly Weather History & Observations

Time (PDT) Temp. Dew Point Humidity Pressure Visibility Wind Dir Wind Speed Gust Speed Precip Events Conditions
12:56 AM 53.1 °F 52.0 °F 96% 29.74 in 8.0 mi Calm Calm - N/A   Clear
1:06 AM 51.8 °F 51.8 °F 100% 29.74 in 1.8 mi Calm Calm - N/A   Partly Cloudy
1:17 AM 53.6 °F 53.6 °F 100% 29.74 in 3.0 mi Calm Calm - N/A   Partly Cloudy
1:56 AM 54.0 °F 52.0 °F 93% 29.74 in 7.0 mi Calm Calm - N/A   Clear
2:56 AM 55.0 °F 53.1 °F 93% 29.74 in 2.5 mi Calm Calm - N/A   Partly Cloudy
3:08 AM 55.4 °F 53.6 °F 94% 29.74 in 4.0 mi SSE 3.5 mph - N/A   Partly Cloudy
3:56 AM 52.0 °F 52.0 °F 100% 29.73 in 7.0 mi Calm Calm - N/A   Clear
4:07 AM 51.8 °F 50.0 °F 94% 29.73 in 1.2 mi Calm Calm - N/A   Partly Cloudy
4:09 AM 51.8 °F 50.0 °F 94% 29.72 in 0.8 mi Calm Calm - N/A   Mist
4:25 AM 51.8 °F 50.0 °F 94% 29.72 in 1.5 mi Calm Calm - N/A   Scattered Clouds
4:28 AM 51.8 °F 51.8 °F 100% 29.72 in 3.0 mi Calm Calm - 0.01 in   Scattered Clouds
4:56 AM 52.0 °F 51.1 °F 97% 29.72 in 4.0 mi Calm Calm - 0.01 in   Clear
5:04 AM 51.8 °F 50.0 °F 94% 29.72 in 2.5 mi Calm Calm - N/A   Partly Cloudy
5:12 AM 50.0 °F 50.0 °F 100% 29.72 in 6.0 mi Calm Calm - N/A   Scattered Clouds
5:22 AM 51.8 °F 51.8 °F 100% 29.72 in 1.5 mi Calm Calm - N/A   Scattered Clouds
5:33 AM 51.8 °F 50.0 °F 94% 29.72 in 4.0 mi Calm Calm - N/A   Scattered Clouds
5:51 AM 51.8 °F 50.0 °F 94% 29.72 in 1.8 mi Calm Calm - N/A   Partly Cloudy
5:53 AM 50.0 °F 50.0 °F 100% 29.71 in 1.0 mi Calm Calm - N/A   Mist
5:56 AM 48.9 °F 48.9 °F 100% 29.72 in 0.8 mi Calm Calm - N/A   Mist
6:05 AM 50.0 °F 48.2 °F 94% 29.71 in 1.2 mi NNE 3.5 mph - N/A   Partly Cloudy
6:10 AM 51.8 °F 51.8 °F 100% 29.71 in 2.5 mi NNE 3.5 mph - N/A   Partly Cloudy
6:17 AM 51.8 °F 50.0 °F 94% 29.71 in 3.0 mi Calm Calm - N/A   Partly Cloudy
6:21 AM 48.2 °F 48.2 °F 100% 29.71 in 1.8 mi Calm Calm - N/A   Partly Cloudy
6:33 AM 50.0 °F 48.2 °F 94% 29.72 in 1.0 mi Calm Calm - N/A   Mist
6:40 AM 50.0 °F 48.2 °F 94% 29.72 in 0.5 mi Calm Calm - N/A Fog Fog
6:56 AM 50.0 °F 50.0 °F 100% 29.73 in 2.0 mi Calm Calm - N/A   Scattered Clouds
7:03 AM 51.8 °F 50.0 °F 94% 29.72 in 5.0 mi Calm Calm - N/A   Scattered Clouds
7:56 AM 55.0 °F 54.0 °F 96% 29.73 in 6.0 mi Calm Calm - N/A   Clear
8:09 AM 55.4 °F 55.4 °F 100% 29.74 in 2.5 mi Calm Calm - N/A   Clear
8:17 AM 57.2 °F 57.2 °F 100% 29.74 in 5.0 mi Calm Calm - N/A   Clear
8:56 AM 61.0 °F 57.9 °F 90% 29.74 in 8.0 mi South 5.8 mph - N/A   Clear
9:56 AM 63.0 °F 57.0 °F 81% 29.76 in 9.0 mi SSE 11.5 mph - N/A   Clear
10:56 AM 64.0 °F 57.9 °F 80% 29.76 in 9.0 mi SSE 12.7 mph - N/A   Clear
11:56 AM 64.9 °F 57.0 °F 75% 29.77 in 9.0 mi SSE 12.7 mph - N/A   Clear
12:56 PM 64.9 °F 57.0 °F 75% 29.78 in 9.0 mi South 16.1 mph - N/A   Clear
1:56 PM 63.0 °F 55.9 °F 78% 29.78 in 10.0 mi South 18.4 mph - N/A   Clear
2:03 PM 62.6 °F 55.4 °F 77% 29.79 in 8.0 mi South 19.6 mph - N/A   Scattered Clouds
2:12 PM 62.6 °F 55.4 °F 77% 29.79 in 6.0 mi South 16.1 mph - N/A   Haze
2:25 PM 60.8 °F 55.4 °F 82% 29.79 in 1.8 mi South 19.6 mph - N/A   Haze
2:35 PM 60.8 °F 55.4 °F 82% 29.79 in 3.0 mi South 19.6 mph - N/A   Overcast
2:56 PM 61.0 °F 55.9 °F 83% 29.80 in 7.0 mi SSE 18.4 mph 26.5 mph N/A   Overcast
3:56 PM 62.1 °F 55.9 °F 80% 29.81 in 10.0 mi SSE 17.3 mph 26.5 mph N/A   Overcast
4:56 PM 60.1 °F 55.0 °F 83% 29.81 in 10.0 mi South 19.6 mph 26.5 mph N/A   Overcast
5:56 PM 59.0 °F 55.9 °F 90% 29.82 in 10.0 mi South 19.6 mph 24.2 mph N/A   Overcast
6:56 PM 57.9 °F 55.9 °F 93% 29.83 in 10.0 mi South 19.6 mph 24.2 mph N/A   Mostly Cloudy
7:13 PM 57.2 °F 55.4 °F 94% 29.83 in 10.0 mi South 17.3 mph - N/A   Scattered Clouds
7:41 PM 57.2 °F 55.4 °F 94% 29.83 in 10.0 mi SSE 15.0 mph - N/A   Mostly Cloudy
7:56 PM 57.9 °F 55.9 °F 93% 29.84 in 10.0 mi South 18.4 mph 24.2 mph N/A   Overcast
8:23 PM 57.2 °F 57.2 °F 100% 29.85 in 9.0 mi SSE 12.7 mph - N/A   Overcast
8:56 PM 59.0 °F 57.0 °F 93% 29.86 in 10.0 mi SSE 11.5 mph - N/A   Overcast
9:35 PM 59.0 °F 57.2 °F 94% 29.87 in 10.0 mi SSE 12.7 mph - N/A   Overcast
9:56 PM 59.0 °F 57.0 °F 93% 29.87 in 10.0 mi SSE 12.7 mph - N/A   Overcast
10:56 PM 59.0 °F 57.9 °F 96% 29.88 in 10.0 mi SSE 11.5 mph - N/A   Overcast
11:03 PM 59.0 °F 57.2 °F 94% 29.88 in 10.0 mi SSE 11.5 mph - N/A   Overcast
11:30 PM 59.0 °F 57.2 °F 94% 29.89 in 6.0 mi SE 9.2 mph - N/A   Overcast
11:56 PM 59.0 °F 59.0 °F 100% 29.89 in 5.0 mi SE 6.9 mph - N/A   Overcast